Weather History for Kerrville, TX

Change the Weather History Date:

Tuesday, September 10, 2013

  Actual Average (KHDO) Record (KHDO)
Temperature  
Mean Temperature 76 °F -  
Max Temperature 81 °F 89 °F 100 °F (2000)
Min Temperature 71 °F 68 °F 57 °F (2012)
Cooling Degree Days 11    
Growing Degree Days 26 (Base 50)    
Moisture  
Dew Point 70 °F    
Average Humidity 87    
Maximum Humidity 93    
Minimum Humidity 69    
Precipitation  
Precipitation 0.30 in - - ()
Sea Level Pressure  
Sea Level Pressure 30.06 in    
Wind  
Wind Speed 7 mph (SE)    
Max Wind Speed 15 mph    
Max Gust Speed 22 mph    
Visibility 9 miles    
Events Rain , Thunderstorm    
Averages and records for this station are not official NWS values.
T = Trace of Precipitation, MM = Missing Value Source: NWS Daily Summary

Daily Weather History Graph

Daily Weather History Graph

Search for Another Location

Airport:

Trip Planner

Search our weather history database for the weather conditions in past years. The results will help you decide how hot, cold, wet, or windy it might be!

Date:

Astronomy

Sep. 10, 2013 Rise Set
Actual Time 7:18 AM CDT 7:47 PM CDT
Civil Twilight 6:54 AM CDT 8:11 PM CDT
Nautical Twilight 6:26 AM CDT 8:39 PM CDT
Astronomical Twilight 5:57 AM CDT 9:08 PM CDT
Moon 12:20 PM CDT (9/10) 11:18 PM CDT (9/10)
Length of Visible Light 13h 17m
Length of Day
12h 29m
Waxing Crescent, 28% of the Moon is Illuminated
Sep 10
Waxing Crescent
Sep 12
First Quarter
Sep 19
Full
Sep 26
Last Quarter
Oct 4
New

Hourly Weather History & Observations

Time (CDT) Temp. Heat Index Dew Point Humidity Pressure Visibility Wind Dir Wind Speed Gust Speed Precip Events Conditions
12:15 AM 71.8 °F - 67.1 °F 85% 30.03 in 10.0 mi ESE 10.4 mph - N/A   Mostly Cloudy
12:35 AM 71.6 °F - 67.1 °F 86% 30.03 in 10.0 mi SE 8.1 mph - N/A   Mostly Cloudy
12:55 AM 71.6 °F - 67.1 °F 86% 30.02 in 10.0 mi SE 9.2 mph - N/A   Scattered Clouds
1:15 AM 71.6 °F - 67.3 °F 86% 30.02 in 10.0 mi SSE 8.1 mph - N/A   Clear
1:35 AM 71.6 °F - 67.6 °F 87% 30.02 in 10.0 mi SSE 6.9 mph - N/A   Clear
1:55 AM 71.6 °F - 67.5 °F 87% 30.02 in 10.0 mi SE 6.9 mph - N/A   Mostly Cloudy
2:15 AM 71.6 °F - 67.5 °F 87% 30.03 in 10.0 mi SSE 8.1 mph - N/A   Overcast
2:35 AM 71.6 °F - 67.5 °F 87% 30.03 in 10.0 mi SE 6.9 mph - N/A   Overcast
2:55 AM 71.6 °F - 67.5 °F 87% 30.02 in 10.0 mi SE 6.9 mph - N/A   Overcast
3:15 AM 71.8 °F - 68.0 °F 88% 30.02 in 10.0 mi SE 5.8 mph - N/A   Overcast
3:35 AM 72.0 °F - 68.2 °F 88% 30.02 in 10.0 mi SE 5.8 mph - N/A   Overcast
3:55 AM 72.0 °F - 68.2 °F 88% 30.02 in 10.0 mi SE 5.8 mph - N/A   Overcast
4:15 AM 71.6 °F - 68.0 °F 88% 30.02 in 10.0 mi SE 5.8 mph - N/A   Overcast
4:35 AM 72.7 °F - 68.9 °F 88% 30.02 in 10.0 mi SE 5.8 mph - N/A   Overcast
4:55 AM 72.7 °F - 68.5 °F 87% 30.02 in 10.0 mi SE 8.1 mph - N/A   Overcast
5:15 AM 72.7 °F - 68.9 °F 88% 30.02 in 10.0 mi SE 5.8 mph - N/A   Overcast
5:35 AM 72.0 °F - 68.4 °F 88% 30.02 in 10.0 mi SSE 5.8 mph - N/A   Overcast
5:55 AM 71.6 °F - 68.0 °F 88% 30.02 in 10.0 mi ESE 4.6 mph - N/A   Overcast
6:15 AM 71.6 °F - 68.2 °F 89% 30.03 in 10.0 mi ESE 4.6 mph - N/A   Overcast
6:35 AM 71.6 °F - 68.5 °F 90% 30.03 in 10.0 mi ESE 3.5 mph - N/A   Mostly Cloudy
6:55 AM 71.6 °F - 68.5 °F 90% 30.04 in 10.0 mi East 4.6 mph - N/A   Overcast
7:15 AM 71.6 °F - 68.5 °F 90% 30.05 in 10.0 mi East 4.6 mph - N/A   Overcast
7:35 AM 71.6 °F - 68.9 °F 91% 30.05 in 10.0 mi East 5.8 mph - N/A   Overcast
7:55 AM 71.6 °F - 68.9 °F 91% 30.05 in 10.0 mi East 5.8 mph - N/A   Overcast
8:15 AM 71.6 °F - 68.9 °F 91% 30.06 in 10.0 mi East 4.6 mph - N/A   Mostly Cloudy
8:35 AM 71.6 °F - 68.9 °F 91% 30.07 in 10.0 mi East 5.8 mph - N/A   Overcast
8:55 AM 72.7 °F - 69.6 °F 90% 30.07 in 10.0 mi East 6.9 mph - N/A   Overcast
9:15 AM 72.5 °F - 69.6 °F 91% 30.08 in 5.0 mi East 6.9 mph - N/A Rain Rain
9:35 AM 71.6 °F - 69.3 °F 92% 30.09 in 2.5 mi East 6.9 mph - 0.04 in Rain Light Rain
9:55 AM 71.6 °F - 69.4 °F 93% 30.10 in 1.8 mi ESE 6.9 mph - 0.14 in Rain Heavy Rain
10:15 AM 71.6 °F - 69.4 °F 93% 30.10 in 3.0 mi SE 4.6 mph - 0.06 in Rain Heavy Rain
10:35 AM 71.6 °F - 69.4 °F 93% 30.10 in 7.0 mi East 3.5 mph - 0.06 in   Overcast
10:55 AM 71.6 °F - 69.4 °F 93% 30.11 in 5.0 mi East 5.8 mph - 0.06 in Rain , Thunderstorm Light Thunderstorms and Rain
11:15 AM 71.6 °F - 69.4 °F 93% 30.11 in 7.0 mi NE 3.5 mph - 0.04 in Rain Light Rain
11:35 AM 73.2 °F - 71.2 °F 93% 30.11 in 4.0 mi East 4.6 mph - 0.05 in Rain Light Rain
11:55 AM 73.9 °F - 71.6 °F 92% 30.11 in 10.0 mi South 4.6 mph - 0.05 in   Overcast
12:15 PM 76.5 °F - 73.0 °F 89% 30.10 in 10.0 mi ESE 6.9 mph - N/A   Overcast
12:35 PM 76.8 °F - 71.8 °F 84% 30.09 in 10.0 mi East 8.1 mph - N/A   Overcast
12:55 PM 79.0 °F - 71.1 °F 77% 30.09 in 10.0 mi ESE 8.1 mph - N/A   Mostly Cloudy
1:15 PM 79.9 °F - 70.7 °F 73% 30.08 in 10.0 mi SE 10.4 mph - N/A   Mostly Cloudy
1:35 PM 76.5 °F - 71.8 °F 85% 30.08 in 5.0 mi South 11.5 mph - 0.01 in Rain Light Rain
1:55 PM 74.3 °F - 71.2 °F 90% 30.09 in 10.0 mi South 10.4 mph - 0.01 in Rain Light Rain
2:15 PM 73.9 °F - 71.2 °F 91% 30.09 in 10.0 mi South 11.5 mph - 0.02 in Rain Heavy Rain
2:35 PM 73.9 °F - 71.6 °F 92% 30.08 in 7.0 mi South 6.9 mph - 0.04 in Rain Light Rain
2:55 PM 73.9 °F - 71.1 °F 91% 30.07 in 10.0 mi South 9.2 mph - 0.04 in   Scattered Clouds
3:15 PM 75.4 °F - 72.3 °F 90% 30.06 in 10.0 mi SSE 8.1 mph - N/A Rain Light Rain
3:35 PM 76.3 °F - 73.0 °F 90% 30.05 in 10.0 mi SE 6.9 mph - N/A Rain Light Rain
3:55 PM 76.5 °F - 72.3 °F 87% 30.04 in 10.0 mi SE 6.9 mph - N/A   Scattered Clouds
4:15 PM 78.1 °F - 72.9 °F 84% 30.04 in 10.0 mi SSE 8.1 mph - N/A   Clear
4:35 PM 79.0 °F - 71.8 °F 78% 30.03 in 10.0 mi South 10.4 mph - N/A   Scattered Clouds
4:55 PM 81.5 °F 86.3 °F 72.5 °F 74% 30.03 in 10.0 mi South 10.4 mph - N/A   Clear
5:15 PM 81.5 °F 85.7 °F 71.2 °F 71% 30.02 in 10.0 mi SE 11.5 mph 17.3 mph N/A   Clear
5:35 PM 81.5 °F 85.5 °F 70.9 °F 70% 30.02 in 10.0 mi SE 11.5 mph - N/A   Clear
5:55 PM 81.5 °F 85.3 °F 70.5 °F 69% 30.03 in 10.0 mi SE 10.4 mph - N/A   Scattered Clouds
6:15 PM 79.0 °F - 70.7 °F 76% 30.05 in 10.0 mi SE 12.7 mph 19.6 mph N/A   Mostly Cloudy
6:35 PM 79.0 °F - 68.4 °F 70% 30.05 in 10.0 mi SE 15.0 mph 21.9 mph N/A   Mostly Cloudy
6:55 PM 78.1 °F - 69.4 °F 75% 30.05 in 10.0 mi ESE 11.5 mph - N/A   Scattered Clouds
7:15 PM 76.5 °F - 69.4 °F 79% 30.06 in 10.0 mi ESE 9.2 mph 16.1 mph N/A   Scattered Clouds
7:35 PM 76.5 °F - 70.5 °F 82% 30.06 in 10.0 mi East 6.9 mph - N/A   Scattered Clouds
7:55 PM 75.0 °F - 70.2 °F 85% 30.07 in 10.0 mi East 5.8 mph - N/A   Clear
8:15 PM 73.9 °F - 69.8 °F 87% 30.07 in 10.0 mi East 4.6 mph - N/A   Clear
8:35 PM 73.8 °F - 69.8 °F 87% 30.07 in 10.0 mi East 4.6 mph - N/A   Clear
8:55 PM 72.7 °F - 69.1 °F 88% 30.08 in 10.0 mi East 4.6 mph - N/A   Scattered Clouds
9:15 PM 73.8 °F - 69.8 °F 87% 30.08 in 10.0 mi East 5.8 mph - N/A   Mostly Cloudy
9:35 PM 73.8 °F - 70.0 °F 88% 30.09 in 10.0 mi East 5.8 mph - N/A   Mostly Cloudy
9:55 PM 72.7 °F - 69.3 °F 89% 30.09 in 10.0 mi East 6.9 mph - N/A   Scattered Clouds
10:15 PM 72.0 °F - 69.1 °F 91% 30.10 in 10.0 mi East 5.8 mph - N/A   Clear
10:35 PM 71.6 °F - 68.9 °F 91% 30.11 in 10.0 mi East 3.5 mph - N/A   Clear
10:55 PM 71.6 °F - 69.3 °F 92% 30.11 in 10.0 mi East 4.6 mph - N/A   Clear
11:15 PM 71.6 °F - 69.4 °F 93% 30.11 in 10.0 mi South 3.5 mph - N/A   Scattered Clouds
11:35 PM 71.6 °F - 69.4 °F 93% 30.11 in 10.0 mi Calm Calm - N/A   Clear
11:55 PM 71.6 °F - 69.4 °F 93% 30.11 in 7.0 mi Calm Calm - N/A   Scattered Clouds